Wind_Speed
5 6 7 8 9 14 19 24 28 32 35 31 27 26 27 29 28 25 21 19 20 20 19 19 19 23 25 23 23 25 27 27 22 16 11 9 8 6 7 7 8 9 8 7 6 6 6 8 9 6 5 6 8 11 11 12 11 11 9 7 5 4 4 5 4 3 2 3 4 5 6 8 9 10 11 12 12 12 12 11 10 10 11 11 11
5 5 5 5 6 8 12 18 25 30 33 32 32 31 31 33 31 25 20 18 21 22 20 19 19 21 24 26 26 27 28 23 13 7 6 7 6 5 5 5 10 9 7 6 6 8 7 8 7 2 5 7 8 11 13 13 12 12 10 8 6 5 4 6 6 5 4 3 1 2 4 5 5 6 7 7 6 5 6 6 7 9 10 11 12
6 5 5 4 3 3 6 11 18 24 29 31 32 32 32 33 33 28 22 19 20 23 23 20 20 23 25 26 26 27 26 15 5 5 4 5 6 8 5 2 8 8 8 6 4 6 5 6 5 3 8 11 11 14 14 13 12 11 10 8 7 5 3 4 5 5 5 4 2 1 2 3 3 3 3 3 3 3 4 6 8 10 11 12 14
6 5 4 4 2 0 3 7 11 16 21 26 30 31 31 31 31 28 23 17 16 19 22 23 21 22 23 25 26 25 16 5 2 2 4 4 4 8 6 3 6 8 9 8 7 5 3 5 6 7 10 12 14 16 15 14 13 11 9 7 5 4 3 4 4 4 4 3 2 1 1 1 1 2 3 3 3 3 5 9 12 13 14 15 15
6 5 5 4 3 2 3 2 2 4 7 12 18 22 25 26 27 25 19 12 11 11 14 20 21 20 22 23 21 15 5 2 4 4 6 6 4 6 6 5 6 7 7 7 8 6 4 7 10 10 10 13 15 16 17 16 15 13 8 5 4 3 3 3 4 5 5 2 2 3 2 1 1 2 3 3 3 6 9 12 14 15 15 14 14
7 7 6 6 5 6 8 10 10 10 9 7 6 7 9 12 15 16 15 11 9 9 9 13 16 16 15 11 7 5 4 4 6 5 6 4 5 9 9 9 8 8 6 5 7 9 11 13 16 16 15 16 15 15 16 16 16 12 6 5 5 4 3 3 4 5 4 2 1 1 1 1 1 2 4 6 8 11 13 14 15 14 13 13 15
7 8 8 8 8 9 12 14 16 18 18 17 16 14 11 9 8 8 8 7 7 7 6 5 5 5 5 4 2 2 4 4 5 6 5 4 6 10 10 9 9 9 10 8 8 14 18 18 18 18 18 17 14 13 14 16 14 8 3 4 5 6 6 5 4 4 4 3 3 2 3 4 4 4 6 8 10 12 12 13 13 12 12 14 16
7 8 9 9 9 11 13 15 17 19 19 18 17 17 16 14 12 11 10 8 7 6 8 9 7 4 3 2 2 4 5 6 7 9 9 6 7 9 10 10 9 8 10 11 11 14 17 16 16 18 18 16 13 11 12 14 9 4 1 4 6 8 7 7 5 5 5 5 4 3 3 3 5 7 9 10 10 10 11 12 12 13 15 16 17
7 8 9 9 10 12 15 17 19 19 17 15 14 13 13 12 11 11 11 10 10 11 12 10 7 2 2 2 4 6 7 8 9 10 9 7 7 8 12 13 11 9 10 12 11 11 14 16 17 19 18 15 13 10 9 12 7 1 2 4 7 8 6 6 5 5 5 5 5 3 2 4 7 10 11 11 10 11 12 13 14 15 17 18 20
8 8 8 8 9 11 14 18 20 19 17 15 14 13 12 11 10 10 10 9 8 8 9 7 4 2 4 4 5 7 7 7 6 6 5 6 9 9 11 12 9 8 10 12 13 13 16 18 19 19 17 14 13 10 6 9 10 6 4 4 7 6 4 4 4 6 5 4 5 4 5 10 13 13 13 12 11 11 12 12 14 16 19 21 21
9 9 8 8 8 10 13 16 18 17 16 16 16 15 13 12 11 9 8 7 5 4 5 4 2 4 4 4 5 6 5 3 1 2 4 6 8 7 8 8 5 6 7 9 12 14 16 18 19 19 16 14 13 11 6 6 10 9 4 3 6 4 5 3 5 7 5 3 4 5 10 16 17 16 14 13 11 11 12 13 16 19 21 20 15
8 9 8 8 7 9 12 14 14 14 14 15 15 14 13 11 9 7 5 4 4 3 2 1 2 4 2 2 5 7 6 5 5 5 6 6 6 6 7 7 5 7 8 9 12 14 16 17 19 19 17 15 12 11 8 7 9 10 7 6 9 7 9 6 3 4 5 6 8 12 17 18 17 16 14 13 11 12 13 16 19 21 18 13 8
9 8 8 8 7 8 11 13 13 12 11 11 10 9 10 9 7 5 4 3 4 6 6 3 3 4 4 4 5 6 5 6 9 9 10 9 9 10 10 11 11 13 14 14 15 17 19 19 18 16 15 15 14 12 11 11 12 12 12 12 13 11 11 7 3 4 7 11 14 17 17 15 14 12 12 12 12 12 14 17 18 15 9 6 4
11 10 9 9 8 9 10 12 12 10 9 8 6 5 6 6 6 6 6 6 6 5 5 5 5 6 6 7 5 6 6 7 9 11 12 12 11 12 12 13 14 16 16 16 17 18 19 19 18 15 14 15 17 16 15 14 12 13 12 11 9 7 7 5 6 7 9 12 15 15 12 11 10 9 10 11 11 13 16 16 11 6 3 4 4
13 11 10 10 11 11 11 11 10 9 9 8 8 6 4 4 4 6 7 6 6 5 5 4 6 9 8 6 4 7 9 10 10 9 10 10 10 11 13 14 14 15 16 18 18 18 18 17 16 14 14 14 13 14 14 13 12 12 11 9 7 8 9 10 10 10 11 12 12 12 10 8 8 8 10 11 14 16 15 9 3 3 4 4 5
14 13 11 11 11 11 10 9 8 8 9 8 8 6 4 5 6 8 7 5 5 6 6 4 5 9 9 5 6 10 13 13 12 8 7 7 6 8 11 13 14 15 17 18 18 17 16 15 14 14 15 15 13 12 12 12 12 12 12 11 10 12 14 14 13 12 12 10 9 7 6 6 7 9 11 15 17 14 7 2 2 4 4 5 6
15 13 11 11 11 11 9 9 8 8 8 7 7 5 3 5 8 10 9 7 5 5 7 5 5 7 7 6 9 13 15 16 14 10 7 6 5 8 11 12 14 16 16 16 15 14 13 12 12 13 14 15 15 13 12 12 11 11 12 10 10 11 12 12 10 8 8 6 4 5 6 8 11 14 16 17 12 4 2 3 4 5 6 7 8
15 12 11 11 11 11 9 9 8 7 7 7 7 5 4 5 7 7 7 8 6 6 6 5 6 8 8 9 11 14 15 15 13 10 7 7 6 8 10 12 14 15 14 13 13 12 12 13 12 14 14 12 11 10 8 6 5 6 7 7 7 9 11 9 6 5 5 5 5 7 10 13 14 15 14 8 1 3 4 4 5 6 7 8 9
15 13 11 12 13 11 9 9 9 8 8 7 6 5 5 5 6 5 5 8 10 9 6 6 10 11 11 11 11 11 11 11 10 8 7 7 8 9 10 11 12 13 12 13 14 14 13 14 13 12 11 8 7 5 2 2 4 6 7 8 8 10 10 8 6 7 7 9 11 11 12 12 11 8 3 2 4 4 4 5 6 7 8 8 9
15 13 11 13 13 13 12 11 11 10 9 8 6 4 3 4 7 8 8 10 12 10 8 9 10 11 11 9 7 6 7 8 8 8 8 9 9 10 10 10 10 11 11 13 16 15 13 11 9 6 4 2 2 1 1 2 4 6 8 7 6 6 5 5 5 7 9 9 10 9 7 5 2 3 5 5 5 5 5 7 7 8 8 8 8
14 12 11 13 13 13 12 11 10 9 8 8 7 5 5 5 6 8 8 9 9 8 8 8 8 8 7 6 5 4 5 6 8 8 9 9 9 9 9 9 9 10 12 14 15 13 10 6 3 3 5 6 6 5 3 2 2 3 4 2 0 2 3 3 3 3 4 4 3 2 4 5 7 7 7 6 5 6 7 7 8 8 8 8 9
15 12 10 11 12 11 11 10 10 10 10 10 8 7 7 8 8 8 8 8 8 8 8 8 9 8 7 6 6 5 6 7 8 9 8 8 9 8 8 8 10 11 11 11 10 7 5 5 7 10 11 10 9 8 5 4 3 4 4 4 3 3 3 2 2 3 4 5 7 8 9 9 9 8 7 7 7 7 7 8 8 8 9 10 10
15 12 11 12 11 10 10 10 11 11 12 10 9 9 10 10 10 10 9 10 9 9 10 10 10 10 9 9 8 9 9 9 9 9 9 9 9 8 9 9 9 9 8 7 7 7 9 11 13 14 13 12 11 10 8 7 7 6 6 6 5 4 5 6 7 9 10 10 11 11 10 9 9 8 8 8 8 8 8 9 9 10 10 10 10
16 13 12 13 11 10 11 10 10 11 12 11 11 11 10 11 11 11 11 11 11 11 11 11 11 12 12 12 11 11 11 11 11 11 10 10 10 9 9 9 9 9 9 10 11 12 14 15 15 16 15 14 13 12 10 10 10 9 9 9 7 8 10 12 13 14 13 12 12 11 10 10 10 10 9 9 8 9 10 10 10 10 10 11 12
17 14 12 13 12 12 12 11 11 12 12 11 12 12 11 12 12 12 12 13 12 12 12 12 13 14 14 14 13 13 13 13 13 12 12 11 11 11 11 11 12 13 13 13 14 15 17 17 17 17 16 15 15 14 13 12 12 12 12 10 10 13 15 16 16 15 13 12 12 12 12 12 11 10 9 9 9 10 10 9 9 10 11 12 13
18 16 13 13 14 14 13 12 12 12 12 12 12 12 13 14 14 14 14 14 14 13 14 14 15 16 16 15 15 15 15 15 14 13 13 13 12 12 13 14 15 17 17 16 16 17 17 18 18 17 16 16 17 17 15 14 14 14 14 14 15 17 17 17 16 15 14 14 14 13 13 12 11 10 10 9 9 9 9 9 10 11 12 13 13
19 18 15 14 14 14 15 14 13 12 12 13 13 14 15 15 15 15 15 15 15 14 14 15 16 16 16 16 16 16 16 16 16 15 15 15 14 14 15 16 17 20 20 19 18 18 19 20 19 18 18 18 19 20 19 17 17 17 17 18 18 18 17 17 16 16 16 16 15 13 12 12 11 10 10 10 10 10 10 11 12 12 13 13 13
19 18 17 16 15 13 14 15 15 13 12 13 14 15 15 15 15 16 16 15 15 15 15 15 15 15 16 16 16 16 17 17 18 18 18 17 17 16 17 17 19 22 23 22 20 20 21 21 21 20 20 20 22 23 21 20 20 20 19 19 18 18 18 18 18 18 17 16 15 14 14 13 13 12 11 11 12 12 13 13 13 13 14 13 14
18 19 18 17 16 14 14 16 15 15 14 15 15 15 15 16 16 16 16 15 14 15 14 14 15 15 15 16 16 16 17 18 19 19 19 19 18 18 18 19 20 23 23 23 23 22 19 21 23 23 22 22 23 22 21 22 21 20 20 19 19 19 19 19 19 19 18 18 17 16 16 15 14 13 13 14 14 14 14 14 15 14 14 14 15
17 18 18 18 17 16 16 17 17 17 16 15 15 15 15 16 16 16 15 14 14 15 14 15 15 15 16 16 17 17 17 18 19 20 21 21 19 17 19 20 20 21 22 23 25 23 18 20 24 24 23 23 21 21 21 21 21 20 20 20 21 20 20 21 21 20 20 19 19 17 16 16 16 16 16 16 16 16 16 16 16 16 16 16 17
16 17 18 18 18 18 19 19 19 19 18 17 17 17 17 16 17 16 16 15 15 15 15 15 16 16 17 17 17 18 18 19 18 19 21 21 20 19 19 20 20 21 23 24 25 23 21 22 25 24 24 23 20 20 20 21 21 21 21 21 21 20 21 21 21 21 20 19 18 17 16 16 17 18 18 17 17 18 18 18 18 18 18 18 19
15 16 17 17 18 19 20 21 21 21 21 20 20 19 19 19 19 18 18 17 17 16 16 17 17 17 17 18 19 19 20 20 20 20 20 20 21 21 19 19 20 21 23 24 23 22 22 24 25 23 23 23 21 20 21 22 23 23 23 22 21 20 20 21 21 21 20 19 18 17 16 17 18 20 19 18 19 19 19 20 20 19 19 20 20
14 15 16 17 17 19 19 21 22 22 23 22 22 22 21 21 21 21 20 19 18 18 18 18 18 18 18 19 20 20 20 21 21 20 20 20 21 21 21 21 21 22 24 25 24 23 25 25 25 23 22 22 22 22 22 23 23 23 22 21 20 20 19 18 19 20 19 19 18 17 17 18 18 20 21 20 20 20 20 21 21 21 20 20 20
14 14 15 15 16 17 18 19 21 22 22 22 23 22 23 23 23 23 22 22 21 20 19 19 19 19 19 19 20 21 21 21 21 20 20 21 21 21 22 22 23 23 24 25 25 24 26 26 25 24 22 20 20 21 21 22 22 22 21 19 18 19 19 18 17 17 18 19 19 18 18 18 18 19 21 22 21 20 20 21 21 21 20 20 19
14 14 14 14 15 16 17 18 19 20 21 21 22 22 22 23 24 24 24 24 24 23 22 21 20 20 20 20 20 20 21 22 22 21 21 21 21 21 22 22 23 23 24 25 25 25 26 26 26 25 23 21 20 21 21 21 21 20 19 18 18 18 18 18 17 15 16 18 20 20 20 20 20 20 21 21 21 20 20 20 19 18 18 18 17
14 14 13 13 14 15 15 16 17 18 19 20 20 21 21 22 23 24 25 25 26 26 24 22 22 21 21 20 20 20 21 22 22 21 21 21 21 20 20 21 23 23 24 24 24 24 26 26 26 25 23 21 20 21 21 20 20 19 17 16 17 18 19 18 17 16 16 19 21 22 22 22 22 21 20 20 19 19 19 18 18 17 17 17 17
13 13 13 13 13 13 15 15 16 17 18 19 19 20 21 21 23 24 25 25 26 28 26 24 23 23 22 22 21 21 20 21 22 21 21 22 21 19 20 21 22 23 24 23 22 23 24 25 24 23 22 21 20 20 20 19 18 17 17 16 17 18 18 17 16 17 18 20 22 22 22 22 22 20 19 19 19 19 18 18 20 21 21 20 19
13 13 12 12 13 13 14 15 15 16 17 18 18 19 20 21 22 23 25 24 25 27 26 25 25 24 24 23 22 21 21 21 21 22 21 22 21 19 20 21 21 23 23 22 21 21 21 22 22 21 20 20 19 18 18 17 15 14 15 16 17 18 17 15 14 15 17 19 20 20 20 21 20 18 18 18 19 20 21 21 23 24 24 23 22
14 13 12 12 12 13 13 14 15 15 16 17 18 19 20 21 22 23 24 24 24 25 26 26 26 26 25 24 23 22 22 21 21 21 21 21 21 21 20 21 21 22 22 21 21 21 21 21 20 19 18 20 19 17 16 14 12 13 14 14 16 17 17 15 14 15 16 17 18 19 17 18 20 19 19 20 20 21 23 23 23 23 23 24 24
14 13 13 12 12 12 13 13 14 15 16 17 17 18 20 22 22 22 23 23 23 24 26 27 27 26 25 24 24 23 22 22 21 21 21 21 21 20 20 20 20 21 21 20 20 21 22 20 18 17 17 19 20 18 17 15 13 13 13 15 16 16 16 14 13 15 17 17 17 17 16 18 21 21 19 20 21 22 23 24 23 22 21 23 25
13 13 13 13 13 13 13 13 14 15 15 17 18 18 19 20 22 22 21 22 22 23 25 26 27 27 25 24 24 24 23 23 22 21 21 21 21 20 20 20 20 20 20 20 19 20 21 20 18 16 16 17 19 18 17 16 16 16 15 16 16 15 15 14 14 16 17 17 16 17 17 18 21 22 20 20 22 23 23 24 23 22 21 24 26
13 13 13 13 13 13 13 14 14 15 15 16 17 17 17 18 19 19 19 20 20 22 24 26 27 27 25 25 25 25 24 24 23 22 22 22 21 20 20 20 20 20 20 19 19 18 19 19 18 17 16 16 16 17 17 17 18 19 19 18 16 15 15 15 15 17 17 16 16 17 19 17 18 22 23 21 22 22 23 25 24 23 22 24 25
13 13 12 13 13 14 14 14 15 15 15 15 16 17 17 17 17 18 17 18 20 21 23 25 27 27 26 26 25 25 25 25 24 24 23 22 21 20 20 20 20 20 19 19 18 18 18 18 17 17 16 16 16 15 15 14 14 15 16 17 16 15 15 14 14 15 16 15 14 16 19 18 18 23 25 23 22 22 23 25 25 24 23 24 25
13 13 13 13 13 14 14 14 15 15 16 16 16 16 16 17 17 17 17 18 19 21 23 24 26 26 27 27 27 26 26 25 25 25 24 23 22 21 21 20 19 19 18 19 18 18 18 17 16 16 16 15 15 14 13 13 12 11 11 11 12 13 14 13 13 15 17 17 15 15 17 18 18 22 23 22 22 22 23 25 26 26 26 26 26
11 12 13 13 13 13 14 14 15 15 15 16 17 17 16 17 16 17 17 18 20 21 22 23 25 26 27 27 28 28 27 26 26 26 25 24 23 23 22 21 20 19 19 19 18 17 17 16 15 15 15 14 14 13 13 13 13 13 11 10 10 12 13 12 11 12 14 17 17 15 17 18 17 18 20 21 22 23 24 26 27 28 28 28 28
10 11 12 12 13 13 14 14 14 15 15 16 16 16 16 16 16 17 18 19 20 21 21 23 25 26 27 27 27 29 29 28 27 27 27 25 24 24 23 21 20 20 20 18 17 17 17 15 14 15 15 14 14 13 12 12 13 14 13 10 9 11 12 13 13 12 13 15 16 16 18 18 16 16 18 22 23 23 26 28 28 28 28 28 28
9 9 11 12 13 13 13 14 14 14 14 15 15 16 16 17 17 18 19 19 20 21 21 22 24 26 27 26 27 28 29 28 28 28 28 27 25 24 24 23 22 20 19 19 18 17 16 16 15 15 15 14 15 15 14 12 12 13 13 10 9 8 9 12 14 13 13 15 15 16 20 21 19 17 19 22 24 24 26 28 28 27 28 30 30
7 8 9 10 11 13 14 13 13 13 13 14 14 15 16 17 17 18 19 20 20 21 21 21 22 23 25 26 26 27 28 28 28 28 28 28 26 25 24 24 23 22 21 20 19 18 17 17 16 15 15 14 15 16 16 15 15 14 14 14 14 12 10 10 13 14 14 16 16 16 20 22 21 20 20 22 24 25 25 27 30 30 31 33 32
6 6 7 9 10 11 13 13 12 11 11 12 13 13 14 15 16 17 17 19 19 20 21 21 21 21 23 25 25 26 27 27 27 27 28 28 27 27 26 25 25 24 24 22 21 20 19 19 18 17 17 16 16 17 17 17 17 16 15 16 17 16 15 14 15 16 15 16 18 17 18 19 20 21 21 21 23 23 22 26 32 34 34 34 34
5 6 6 7 9 11 12 12 12 10 9 9 10 10 11 13 14 15 15 16 18 19 20 20 21 21 22 23 24 25 26 25 26 26 27 28 28 27 27 25 25 25 25 24 23 23 22 21 20 19 18 17 18 18 18 18 19 19 18 18 18 17 17 17 16 16 15 15 17 17 17 17 18 20 21 20 21 22 23 26 32 34 35 35 36
2 5 6 7 8 11 12 12 11 10 8 8 8 8 9 10 12 13 13 14 15 17 19 20 20 20 21 22 23 24 25 24 24 25 25 25 26 27 27 26 25 25 24 24 24 24 24 23 21 20 19 18 18 19 19 20 21 20 19 18 19 18 16 16 16 16 16 16 16 16 17 17 17 19 20 20 22 24 26 29 32 34 36 37 38
Wind_Direction
183 203 202 210 221 224 225 224 224 225 230 234 237 241 242 247 254 253 249 253 253 259 262 258 251 241 254 281 301 307 310 313 315 325 338 341 336 330 324 333 336 325 318 310 323 333 341 336 317 312 335 352 355 357 353 345 343 340 334 330 340 356 14 19 3 331 290 256 244 248 259 269 269 265 263 263 261 259 257 259 259 266 271 273 276
179 180 184 200 216 227 235 231 229 228 231 236 240 245 248 253 263 264 254 252 251 255 258 258 259 253 260 276 291 300 311 318 325 355 9 358 344 329 321 356 356 332 311 314 329 336 338 333 323 336 352 351 348 352 354 346 341 340 339 344 354 7 20 24 29 41 40 31 315 252 254 258 270 269 258 255 252 252 257 261 262 273 282 283 284
143 147 157 174 190 229 254 250 242 237 235 236 239 244 248 254 265 273 271 263 257 259 257 255 261 264 270 281 289 299 311 324 4 29 6 350 345 335 299 295 357 327 286 287 313 328 337 338 333 331 335 336 331 334 341 339 333 330 332 343 356 3 2 3 24 42 40 29 9 256 250 249 268 291 281 268 260 264 265 274 281 286 291 293 295
106 114 117 126 127 352 287 273 260 251 245 241 240 243 246 251 259 267 273 269 264 268 261 252 255 262 271 282 290 300 311 340 10 324 312 309 331 344 320 284 341 318 287 285 300 312 307 314 312 305 317 326 327 326 327 323 317 315 316 330 349 354 348 337 344 360 12 19 11 323 291 280 324 359 344 298 273 286 290 295 297 295 295 297 299
79 91 94 100 102 72 43 9 295 257 242 237 237 239 241 247 253 259 266 268 271 278 267 251 251 259 268 277 284 288 281 241 262 269 313 315 294 320 314 297 313 312 304 284 289 318 327 311 315 314 316 321 325 324 319 311 305 298 294 318 336 342 346 335 320 331 353 5 16 357 350 39 30 6 336 303 292 300 300 300 300 297 297 300 303
76 83 86 91 84 73 69 66 69 77 88 104 139 182 210 228 240 246 252 255 263 272 265 250 252 261 262 260 256 240 236 248 248 276 319 314 289 295 286 290 296 292 300 277 276 297 295 293 302 312 320 321 324 324 317 311 300 283 270 315 328 325 324 313 305 321 343 318 247 38 11 256 282 279 292 296 296 300 299 299 297 295 298 304 307
69 77 81 83 79 78 77 73 74 77 79 84 93 101 113 133 161 181 199 212 228 242 236 218 218 228 205 164 168 255 297 281 256 283 287 252 273 280 276 294 302 286 286 283 281 283 284 289 296 309 318 319 324 329 323 314 295 259 250 330 328 325 307 290 292 310 320 299 255 235 254 276 295 290 294 297 296 300 300 299 297 297 306 311 311
57 71 79 83 81 82 84 80 77 78 80 83 87 90 97 108 120 127 129 134 145 156 145 136 132 143 167 166 293 291 300 287 273 276 273 264 254 262 283 305 310 301 294 286 279 282 290 300 308 312 314 315 318 327 330 317 291 217 315 342 335 326 302 285 292 309 304 293 277 268 282 293 308 310 307 304 300 301 299 296 298 307 315 316 315
52 68 79 87 86 84 86 82 79 81 84 86 87 89 92 97 104 109 111 116 124 135 140 139 136 140 284 294 293 278 271 275 274 265 260 268 268 282 305 307 302 306 302 287 278 286 297 303 311 313 311 309 303 311 326 315 300 233 294 319 335 331 301 284 293 305 291 289 286 266 277 300 313 317 315 310 304 304 299 291 295 307 312 313 315
56 66 79 91 89 87 88 84 82 83 87 88 86 88 90 92 95 99 105 113 123 137 145 138 114 9 320 320 311 288 268 266 272 261 250 279 305 317 310 295 290 305 294 277 275 281 289 296 308 313 313 306 291 296 313 308 301 287 286 315 337 329 281 280 300 292 278 298 292 254 288 315 323 325 321 314 308 306 301 294 298 307 310 313 315
61 67 76 95 98 95 94 91 87 87 87 88 86 85 85 88 90 95 98 102 111 128 141 124 48 350 327 318 330 329 321 311 304 288 276 300 327 329 306 299 297 294 276 265 277 286 292 299 308 309 314 312 289 277 279 302 301 293 302 350 343 302 234 253 295 289 275 273 256 262 304 317 321 323 321 314 307 301 299 301 306 310 312 313 312
67 71 79 96 109 108 102 97 93 93 91 90 91 84 77 77 77 78 79 81 76 29 339 120 4 348 3 343 355 360 359 353 343 331 317 317 321 303 294 309 307 284 285 284 279 283 290 298 304 301 304 307 288 267 270 299 306 305 303 307 317 282 236 237 280 279 268 276 279 295 310 316 316 317 318 312 301 294 296 303 308 310 311 311 312
70 79 88 101 121 124 111 102 99 100 95 95 95 80 72 65 50 33 16 6 21 6 350 21 9 353 3 338 350 9 12 353 340 337 331 319 307 297 296 303 307 306 309 305 291 283 286 291 297 299 299 298 293 286 291 305 312 311 297 290 297 271 234 231 270 275 278 298 306 308 311 314 314 315 315 307 296 292 298 306 310 311 312 317 328
75 85 98 111 129 133 119 108 103 99 87 83 82 78 75 51 25 6 350 354 15 17 9 25 10 351 336 308 326 10 18 3 345 335 327 319 311 307 308 311 313 313 313 310 302 294 292 291 293 298 301 299 299 297 299 306 308 307 300 295 290 254 229 247 280 285 293 307 314 316 315 313 316 314 301 293 294 301 308 312 314 318 334 346 349
79 88 102 118 128 129 121 113 105 94 82 75 74 77 68 38 12 355 357 21 34 21 10 15 5 2 348 317 343 10 2 354 344 334 321 318 319 311 308 309 307 305 305 304 300 297 295 291 288 292 296 298 301 300 300 300 294 292 293 292 282 266 268 278 283 291 298 305 315 316 307 301 300 296 288 292 305 312 313 316 331 360 6 1 355
82 88 103 121 128 125 119 111 102 96 95 93 92 84 51 42 28 10 16 36 28 4 355 354 357 11 18 11 5 352 343 342 341 335 316 310 313 303 300 300 299 296 296 297 297 298 296 290 284 284 285 284 286 293 294 291 284 282 285 279 272 275 276 280 288 297 298 299 307 297 282 284 287 293 299 308 312 312 317 359 29 16 11 4 359
83 88 101 118 123 118 115 108 99 96 99 98 96 88 32 18 17 19 21 16 6 350 345 345 334 345 1 355 344 335 330 332 331 328 317 311 296 287 291 293 293 294 294 296 297 298 298 292 282 281 281 273 271 281 292 295 281 271 276 268 263 267 268 281 293 291 285 274 253 247 270 289 293 297 304 310 312 315 68 56 25 16 9 5 1
82 87 96 107 110 110 109 101 95 91 83 74 70 63 31 360 360 12 7 356 1 2 352 345 328 324 325 323 324 322 321 322 322 323 320 314 303 295 297 298 298 298 298 299 300 300 296 290 275 272 276 271 273 285 297 298 263 250 254 242 238 239 251 275 279 256 257 261 265 271 280 288 294 299 304 308 339 97 71 36 20 15 9 6 360
75 82 91 95 96 94 85 71 71 73 65 59 58 54 46 12 341 336 336 337 346 353 348 324 312 312 313 311 313 317 320 320 323 329 330 325 321 319 314 311 311 308 305 307 311 311 301 292 282 274 278 283 293 303 294 228 186 187 195 208 220 229 250 266 247 247 264 276 283 287 290 296 302 307 308 100 98 74 43 26 20 14 9 4 2
70 77 88 90 87 81 68 56 54 58 60 53 52 58 43 353 326 328 338 340 343 343 337 323 314 312 315 317 323 331 333 335 342 345 340 336 331 328 325 323 323 318 313 313 314 315 311 305 301 304 315 336 7 43 173 206 182 177 187 202 216 233 268 274 253 259 270 278 286 294 304 316 348 92 103 94 72 46 29 22 19 13 8 8 10
70 75 87 92 88 76 63 54 48 49 57 41 32 40 21 354 343 345 351 353 351 348 346 344 340 340 341 343 349 356 354 350 350 348 343 339 337 336 334 329 327 323 317 312 313 319 327 333 348 65 84 87 89 93 107 128 135 140 154 158 280 306 306 294 284 286 295 313 334 18 73 94 99 95 82 65 45 31 24 22 17 12 12 12 9
71 72 85 94 86 69 57 55 48 45 51 41 29 30 20 22 26 18 17 19 10 4 11 12 9 9 12 12 10 10 6 357 351 351 352 354 354 350 346 337 330 325 320 320 329 348 20 64 91 98 94 89 90 93 95 97 96 88 78 65 33 347 348 359 26 50 47 61 79 89 93 91 83 72 58 44 33 28 22 19 17 16 16 12 8
71 74 84 92 87 72 64 61 52 41 43 45 40 29 24 32 34 27 27 28 19 13 17 20 20 25 30 25 19 16 12 10 10 13 15 14 10 5 359 349 342 341 344 6 33 54 77 91 96 96 94 94 95 94 92 87 78 74 72 71 67 62 62 64 70 75 79 84 85 84 79 71 62 50 42 36 30 26 23 23 23 21 18 14 11
73 76 78 82 83 78 73 66 53 38 33 39 38 27 26 33 32 29 28 28 26 23 26 29 30 35 37 33 30 28 27 27 28 30 29 27 25 21 18 13 14 23 35 55 71 82 90 94 96 96 96 96 93 86 77 70 70 71 73 75 77 77 78 80 82 82 82 80 76 69 60 53 47 42 39 34 31 30 31 31 26 24 20 18 14
73 77 72 72 78 77 71 60 46 37 32 33 32 31 35 38 37 36 35 36 37 38 38 38 41 45 45 42 41 39 38 38 38 39 37 35 35 36 37 35 41 50 56 66 81 90 95 96 94 92 90 85 80 75 68 64 65 67 68 74 79 81 82 83 81 79 75 69 63 55 50 47 45 44 42 40 40 39 37 33 28 26 23 19 14
73 80 74 69 76 78 73 61 48 44 41 39 39 44 48 47 47 47 45 46 48 50 50 50 51 52 49 48 47 46 45 45 45 43 42 42 43 46 48 46 52 60 62 72 85 89 91 90 85 82 80 78 76 73 69 67 68 69 73 79 82 83 82 80 76 72 66 61 56 53 52 51 52 51 48 46 43 39 36 31 31 29 26 22 15
73 79 78 71 71 72 72 69 63 57 49 46 47 49 52 53 53 52 51 51 52 54 54 54 55 55 53 52 51 51 50 50 51 47 47 48 47 50 51 49 57 63 65 72 82 85 83 82 80 77 77 78 77 75 73 73 75 77 80 83 84 83 81 77 73 68 64 61 59 59 58 56 55 51 45 40 35 33 32 32 32 31 28 23 17
72 75 78 76 73 69 68 68 68 65 56 51 50 49 49 51 52 53 53 52 50 51 52 52 54 55 54 53 52 53 52 52 52 51 53 53 55 56 55 58 67 70 70 72 78 78 75 77 77 76 78 77 73 73 75 77 79 81 83 84 83 81 78 75 73 71 70 69 66 63 59 54 49 44 39 34 32 32 31 31 31 30 26 22 20
72 74 76 78 79 74 67 66 67 64 59 54 52 49 46 47 48 50 53 52 50 49 48 48 50 51 51 51 51 52 52 52 52 53 55 58 61 62 59 66 74 73 73 76 80 79 74 77 78 76 77 75 71 72 76 79 81 82 82 82 80 79 79 78 77 76 74 72 69 63 57 52 47 41 37 33 31 30 31 32 32 29 26 24 25
71 74 75 76 76 75 70 69 68 65 61 57 54 52 50 49 47 48 51 50 49 49 47 46 46 47 48 49 51 52 53 53 54 54 55 56 61 65 60 66 76 78 81 83 83 86 85 80 79 80 78 76 75 74 76 79 80 81 82 82 83 81 81 81 80 76 71 69 67 63 58 54 49 44 38 34 32 33 35 35 33 30 27 28 29
70 73 75 75 74 73 71 70 70 68 65 61 57 54 53 52 50 49 49 48 48 47 46 46 45 46 46 47 50 53 53 53 54 57 56 54 61 70 67 68 77 83 87 89 87 90 91 82 79 81 82 80 77 75 77 81 83 84 85 86 86 84 83 81 79 74 69 66 65 63 61 58 52 47 43 39 37 36 37 35 32 30 29 29 28
71 73 74 75 74 73 72 71 71 70 69 66 61 58 56 54 52 51 49 48 47 46 46 46 45 45 45 46 48 50 52 52 56 61 60 57 61 70 73 74 80 82 84 90 90 90 88 83 82 83 82 79 77 79 83 87 89 89 87 88 88 87 85 80 77 73 68 67 65 62 60 59 53 46 44 45 44 40 37 34 31 28 27 26 26
73 73 74 75 75 74 73 72 71 71 70 68 66 62 59 56 54 52 50 49 47 46 46 46 45 46 46 46 47 50 52 53 57 62 63 61 62 66 70 72 77 79 79 84 88 88 87 84 83 84 83 80 80 86 89 89 89 89 88 88 87 86 84 82 77 71 68 69 65 61 58 58 54 46 42 46 49 45 39 35 32 29 26 25 24
77 76 76 75 75 75 74 74 73 72 71 70 68 65 62 59 56 54 52 51 49 48 46 46 46 46 47 47 48 51 54 54 57 60 60 61 62 64 66 66 71 76 77 79 84 87 88 86 85 85 86 86 87 89 89 88 88 89 88 87 86 84 83 85 80 70 68 70 65 61 60 60 57 50 45 46 49 49 46 42 37 33 30 27 25
78 79 79 78 78 77 76 75 74 73 72 71 69 66 64 61 58 55 54 53 51 49 47 47 47 47 49 49 49 52 55 57 58 60 60 61 63 64 65 66 69 74 78 80 84 86 87 88 88 88 89 89 89 88 87 87 87 87 86 85 83 81 82 85 83 77 72 66 61 59 59 56 54 51 46 45 47 49 50 49 46 43 39 35 30
76 80 81 81 81 80 79 77 76 75 73 72 70 67 65 62 59 56 54 55 52 49 48 48 49 49 50 51 52 55 57 59 60 62 63 61 64 66 66 67 68 73 78 78 81 85 86 88 89 88 87 87 84 85 85 85 84 85 85 84 81 77 82 86 84 81 75 61 56 58 55 50 50 50 45 41 45 48 49 49 49 47 43 40 37
71 76 80 82 82 82 81 79 77 76 73 72 70 67 65 62 60 56 53 55 52 47 48 50 51 51 51 52 54 56 60 61 61 64 66 64 66 68 67 67 68 70 73 73 76 83 86 86 86 82 82 83 82 82 82 81 80 82 85 85 83 80 80 82 77 73 68 55 52 55 53 50 51 49 42 37 39 43 42 40 40 37 36 36 37
64 69 74 78 81 82 82 81 79 77 74 72 70 67 65 63 61 58 54 54 51 47 48 51 53 53 53 53 55 57 60 61 62 65 68 69 68 69 69 69 68 68 71 73 74 78 81 83 84 80 78 79 82 81 78 79 78 77 82 84 82 81 77 74 70 65 62 54 47 48 51 51 52 50 42 36 36 36 35 34 32 29 30 32 35
57 63 66 68 74 78 80 82 81 79 76 74 72 69 66 63 60 59 58 56 53 49 49 51 54 55 54 53 55 58 59 60 62 65 69 73 71 69 71 72 71 72 75 76 73 72 73 77 79 80 79 76 78 79 75 77 78 71 76 82 81 80 74 65 57 56 60 56 43 40 43 44 45 47 41 37 36 34 34 35 33 31 28 27 31
52 54 59 62 65 70 74 78 80 80 79 76 74 72 68 64 59 59 60 58 55 52 51 52 54 55 54 54 55 58 60 60 61 64 68 72 72 69 72 74 74 75 77 78 75 71 69 70 71 76 78 74 71 73 74 72 68 67 74 78 76 79 76 63 51 48 56 57 41 32 36 36 35 36 37 34 32 30 32 36 35 33 30 24 24
53 50 52 56 58 63 67 70 73 76 78 77 74 73 72 67 61 60 62 61 58 55 53 52 54 55 54 54 55 56 58 60 61 63 66 70 72 71 73 75 74 75 77 79 78 73 70 70 70 73 74 71 66 67 70 71 68 71 77 76 72 78 78 65 51 45 52 57 42 33 35 34 29 28 33 34 29 27 30 31 30 31 32 25 22
56 51 49 52 53 57 62 66 69 71 74 76 74 73 74 71 65 62 63 64 61 59 56 54 54 54 53 54 55 56 57 58 60 61 63 67 72 74 75 75 74 73 75 78 80 77 73 71 70 72 73 71 68 66 68 72 74 73 73 72 69 70 69 60 49 43 51 52 39 35 35 34 32 29 32 35 30 27 29 27 24 27 29 25 24
57 55 51 49 50 53 56 61 65 69 71 74 75 74 75 73 68 64 64 65 63 62 60 56 55 55 55 55 55 56 57 59 60 60 62 65 69 72 72 72 73 73 74 76 79 79 75 73 72 73 74 74 75 74 72 71 71 68 65 63 60 61 62 57 48 45 50 47 35 32 30 30 34 31 30 33 33 30 29 25 22 23 24 24 27
58 57 56 52 51 52 53 58 62 67 70 72 74 75 72 70 67 65 64 65 64 63 63 59 57 57 57 57 56 56 56 58 59 60 61 62 64 65 66 68 72 76 76 74 76 78 78 77 76 76 76 75 75 74 73 72 68 66 66 63 56 56 60 59 54 51 51 46 38 30 24 23 29 29 26 27 34 34 27 23 23 23 23 22 25
62 59 59 56 55 54 55 58 61 66 71 73 75 75 73 70 68 66 66 65 64 63 63 61 60 59 59 59 59 58 57 57 58 59 60 61 61 62 63 66 71 76 77 76 75 75 78 80 82 82 79 77 78 76 75 75 73 74 80 77 62 56 58 59 56 54 49 41 38 31 21 22 28 27 21 23 33 34 26 23 25 26 25 25 26
71 62 60 60 60 61 60 60 62 66 70 74 76 76 76 74 72 68 66 64 62 62 62 62 62 61 60 60 61 61 60 58 58 58 58 59 60 60 62 66 70 72 72 74 75 73 76 79 79 81 79 75 78 81 80 73 70 74 79 78 66 56 55 55 54 56 50 38 37 33 27 30 36 30 24 29 36 33 27 27 27 29 30 31 32
83 74 66 63 64 66 66 65 65 67 71 74 77 77 75 73 71 68 65 63 62 62 62 62 62 62 61 60 61 62 62 62 61 60 59 58 58 60 64 67 69 68 65 68 72 73 74 76 76 78 76 73 75 79 79 75 71 70 73 72 67 60 56 52 49 54 53 40 38 37 31 32 38 36 30 35 39 34 30 31 32 34 37 38 39
85 90 80 70 70 70 71 71 69 68 71 75 77 79 76 71 69 66 64 64 63 61 62 62 62 61 61 60 61 62 63 64 63 62 61 60 59 60 63 64 66 66 66 67 69 69 72 74 77 78 75 73 75 75 73 75 76 76 78 76 72 70 70 60 50 53 53 42 39 38 31 31 39 41 37 37 37 32 30 35 38 42 43 43 43
75 91 97 85 77 76 75 74 74 70 68 72 77 80 78 74 70 66 62 61 61 61 60 61 61 61 60 61 62 63 63 64 65 64 64 64 63 63 64 64 65 67 69 69 68 68 70 72 74 77 76 74 74 73 71 72 74 74 77 78 75 71 70 66 58 54 48 37 34 35 33 33 38 40 38 38 35 30 30 36 40 44 48 48 49
72 79 103 103 88 84 81 76 76 73 66 66 71 73 74 75 75 70 65 59 56 58 60 61 62 62 62 61 62 64 64 64 66 66 66 66 67 67 68 67 67 68 69 70 70 70 70 70 73 74 76 77 77 77 75 73 73 73 76 79 76 73 70 66 60 54 49 42 36 37 36 32 35 40 41 40 36 33 35 39 43 48 53 56 57
89 78 100 123 107 92 87 81 76 74 69 63 60 62 68 74 74 71 70 65 57 56 60 63 63 63 63 61 60 61 62 64 65 65 66 67 69 69 69 68 68 68 68 69 70 71 71 71 72 73 74 78 80 82 83 81 78 77 78 77 71 70 69 67 68 65 56 45 38 40 41 38 44 50 48 45 41 39 44 50 54 57 60 62 64
Height
10962 10962 10963 10963 10963 10964 10964 10964 10964 10963 10962 10963 10964 10966 10967 10968 10969 10970 10971 10971 10971 10972 10973 10974 10974 10974 10973 10972 10971 10971 10971 10970 10969 10968 10967 10966 10964 10963 10963 10963 10962 10962 10961 10960 10959 10958 10957 10956 10955 10955 10955 10955 10954 10954 10953 10951 10950 10950 10949 10948 10948 10947 10946 10946 10945 10944 10944 10943 10943 10942 10942 10943 10943 10944 10945 10945 10945 10945 10945 10945 10945 10945 10945 10945 10944
10962 10963 10963 10963 10963 10963 10963 10962 10962 10962 10962 10963 10965 10966 10966 10966 10966 10967 10970 10971 10970 10970 10971 10973 10973 10973 10973 10973 10973 10972 10971 10970 10969 10967 10967 10966 10965 10965 10965 10964 10963 10962 10961 10959 10958 10957 10956 10956 10955 10955 10955 10955 10954 10954 10953 10951 10950 10949 10949 10948 10948 10947 10947 10946 10946 10945 10945 10944 10944 10943 10943 10943 10944 10944 10944 10945 10945 10944 10944 10945 10944 10944 10944 10944 10943
10963 10964 10964 10964 10964 10963 10963 10962 10961 10961 10962 10964 10965 10966 10966 10965 10964 10965 10968 10970 10970 10969 10970 10972 10973 10974 10974 10973 10973 10972 10971 10970 10968 10967 10967 10967 10967 10966 10965 10963 10962 10961 10960 10959 10957 10957 10956 10956 10955 10955 10955 10954 10954 10953 10953 10952 10950 10949 10948 10948 10947 10947 10947 10947 10947 10946 10946 10945 10945 10944 10944 10944 10944 10945 10945 10945 10945 10945 10944 10944 10944 10944 10944 10943 10943
10964 10964 10964 10964 10964 10964 10963 10962 10961 10961 10961 10963 10964 10964 10965 10964 10964 10965 10967 10968 10969 10969 10970 10971 10973 10974 10974 10973 10972 10972 10971 10970 10969 10968 10968 10967 10967 10966 10965 10963 10962 10961 10960 10959 10958 10956 10956 10955 10955 10954 10954 10954 10953 10953 10952 10951 10950 10949 10948 10948 10947 10947 10947 10947 10947 10947 10946 10946 10945 10945 10945 10945 10945 10945 10945 10945 10945 10945 10945 10944 10944 10944 10943 10942 10942
10964 10965 10965 10965 10965 10964 10963 10962 10961 10960 10960 10961 10961 10962 10963 10964 10964 10965 10966 10967 10969 10970 10970 10971 10972 10973 10974 10973 10972 10972 10972 10970 10969 10969 10968 10967 10966 10965 10964 10963 10962 10961 10960 10959 10958 10957 10956 10955 10955 10954 10954 10953 10953 10952 10951 10951 10950 10949 10949 10948 10947 10947 10948 10948 10947 10947 10947 10947 10946 10946 10945 10945 10945 10945 10945 10945 10945 10945 10945 10944 10944 10943 10942 10941 10941
10965 10965 10965 10965 10965 10965 10964 10963 10962 10961 10961 10960 10960 10961 10962 10963 10964 10964 10966 10968 10969 10971 10971 10970 10971 10972 10973 10973 10972 10972 10972 10971 10969 10968 10968 10967 10965 10964 10964 10963 10963 10961 10960 10959 10958 10957 10956 10956 10955 10954 10953 10953 10952 10951 10950 10949 10948 10948 10948 10948 10948 10948 10948 10948 10947 10947 10947 10947 10947 10946 10946 10945 10945 10945 10945 10945 10945 10944 10944 10943 10943 10942 10941 10941 10940
10966 10966 10966 10965 10965 10965 10964 10964 10963 10963 10962 10961 10961 10962 10963 10963 10964 10965 10966 10968 10969 10971 10971 10970 10971 10971 10972 10972 10972 10972 10971 10970 10968 10967 10967 10967 10965 10964 10963 10962 10962 10961 10959 10958 10957 10956 10955 10955 10955 10954 10953 10952 10951 10951 10949 10948 10947 10947 10948 10948 10948 10948 10948 10948 10947 10947 10947 10947 10947 10946 10946 10946 10946 10945 10945 10945 10944 10944 10943 10942 10942 10941 10941 10940 10939
10966 10966 10966 10966 10966 10966 10965 10965 10965 10964 10964 10963 10963 10964 10964 10965 10965 10966 10967 10968 10969 10970 10971 10971 10972 10972 10972 10972 10972 10972 10970 10969 10968 10967 10967 10966 10965 10963 10962 10961 10961 10960 10959 10958 10957 10955 10955 10955 10954 10953 10952 10951 10951 10950 10949 10948 10947 10947 10948 10948 10948 10948 10947 10947 10947 10947 10946 10946 10946 10946 10946 10946 10946 10945 10945 10945 10944 10943 10943 10942 10941 10941 10940 10939 10938
10967 10967 10967 10967 10967 10967 10967 10967 10967 10966 10966 10966 10966 10966 10967 10967 10967 10968 10968 10969 10970 10971 10972 10972 10972 10973 10972 10972 10972 10971 10970 10968 10968 10967 10966 10965 10964 10963 10962 10960 10959 10958 10957 10957 10956 10955 10954 10954 10954 10953 10952 10951 10951 10950 10949 10948 10948 10947 10947 10948 10948 10947 10947 10947 10947 10947 10946 10946 10946 10947 10946 10946 10946 10945 10945 10944 10944 10943 10942 10942 10941 10940 10939 10938 10937
10968 10968 10968 10968 10968 10968 10968 10969 10968 10968 10968 10968 10968 10969 10969 10969 10969 10970 10971 10971 10972 10972 10973 10973 10973 10973 10972 10972 10971 10971 10969 10967 10967 10967 10966 10964 10963 10962 10961 10959 10957 10956 10956 10955 10955 10955 10954 10954 10953 10952 10952 10951 10950 10950 10949 10948 10948 10947 10947 10947 10947 10947 10947 10946 10946 10946 10946 10946 10946 10946 10946 10946 10945 10944 10944 10944 10943 10943 10942 10941 10940 10939 10939 10938 10937
10969 10969 10969 10969 10969 10969 10970 10970 10971 10971 10971 10970 10970 10971 10971 10971 10971 10972 10972 10972 10972 10972 10973 10973 10973 10973 10972 10972 10972 10970 10968 10967 10966 10966 10965 10964 10962 10961 10960 10959 10957 10956 10955 10955 10954 10953 10953 10952 10952 10951 10951 10950 10950 10949 10949 10948 10948 10947 10947 10947 10947 10947 10947 10946 10946 10946 10946 10946 10946 10946 10945 10945 10944 10944 10943 10943 10943 10942 10942 10941 10940 10939 10938 10937 10936
10970 10970 10970 10970 10970 10970 10971 10973 10973 10973 10973 10972 10972 10972 10972 10973 10973 10973 10973 10972 10972 10972 10972 10973 10973 10973 10973 10972 10972 10971 10969 10967 10965 10964 10964 10962 10961 10961 10960 10958 10956 10955 10954 10954 10954 10953 10952 10951 10951 10951 10951 10950 10949 10949 10949 10948 10948 10947 10947 10947 10947 10947 10947 10946 10946 10946 10946 10946 10946 10945 10944 10944 10944 10943 10943 10942 10942 10942 10941 10940 10939 10938 10937 10936 10935
10972 10971 10971 10971 10971 10972 10973 10975 10975 10975 10975 10975 10974 10973 10973 10974 10974 10974 10973 10973 10972 10973 10973 10973 10973 10973 10973 10972 10971 10971 10970 10967 10964 10962 10961 10960 10959 10958 10957 10955 10953 10951 10951 10951 10952 10952 10951 10951 10950 10950 10950 10950 10949 10949 10948 10948 10947 10947 10947 10946 10946 10946 10946 10946 10946 10946 10946 10946 10945 10944 10943 10943 10943 10943 10942 10942 10942 10941 10941 10940 10939 10937 10936 10936 10935
10974 10973 10973 10972 10972 10973 10975 10977 10977 10977 10977 10976 10976 10975 10975 10975 10974 10974 10973 10973 10973 10973 10973 10973 10973 10972 10971 10970 10969 10970 10970 10968 10965 10962 10960 10957 10956 10954 10953 10953 10951 10949 10949 10950 10950 10950 10950 10950 10949 10949 10949 10949 10948 10947 10947 10947 10946 10946 10946 10946 10945 10946 10945 10946 10946 10946 10946 10945 10945 10944 10943 10942 10942 10942 10942 10942 10941 10941 10940 10939 10938 10937 10936 10935 10935
10976 10975 10974 10973 10974 10975 10977 10978 10978 10977 10977 10977 10977 10976 10976 10976 10975 10974 10974 10974 10973 10973 10973 10972 10972 10971 10970 10968 10968 10968 10968 10968 10967 10965 10962 10959 10956 10954 10953 10953 10953 10951 10950 10950 10949 10949 10949 10948 10948 10948 10948 10947 10947 10946 10946 10946 10946 10946 10946 10945 10945 10946 10945 10945 10945 10945 10945 10945 10944 10943 10943 10942 10942 10942 10942 10941 10941 10940 10939 10938 10937 10936 10936 10935 10935
10978 10977 10975 10974 10975 10977 10978 10978 10978 10978 10977 10977 10977 10977 10977 10976 10975 10974 10974 10974 10973 10973 10972 10971 10971 10970 10969 10968 10967 10967 10967 10967 10966 10965 10964 10962 10960 10957 10955 10954 10953 10952 10951 10950 10949 10948 10947 10947 10946 10947 10946 10946 10946 10945 10945 10945 10945 10945 10945 10945 10945 10945 10945 10945 10945 10944 10944 10944 10943 10943 10942 10942 10942 10941 10941 10941 10940 10939 10939 10938 10937 10937 10936 10935 10935
10979 10978 10976 10976 10976 10977 10978 10978 10978 10978 10977 10978 10978 10977 10977 10976 10975 10975 10974 10974 10973 10972 10971 10971 10970 10970 10970 10969 10967 10966 10966 10965 10965 10964 10963 10963 10962 10960 10957 10955 10953 10952 10950 10949 10948 10947 10946 10946 10945 10945 10945 10945 10944 10944 10944 10944 10944 10944 10945 10945 10945 10945 10945 10945 10945 10944 10944 10943 10943 10942 10942 10941 10941 10941 10941 10940 10940 10939 10938 10938 10937 10937 10936 10935 10935
10979 10978 10977 10977 10978 10978 10978 10977 10977 10977 10977 10977 10977 10977 10977 10976 10976 10975 10975 10974 10973 10972 10971 10970 10970 10970 10970 10970 10968 10966 10965 10964 10963 10963 10962 10961 10961 10959 10957 10955 10953 10951 10950 10949 10947 10946 10945 10945 10944 10944 10944 10943 10943 10943 10943 10943 10944 10944 10944 10945 10945 10945 10945 10945 10944 10944 10944 10943 10942 10942 10941 10941 10941 10941 10940 10940 10940 10939 10939 10938 10938 10937 10936 10935 10934
10980 10978 10978 10979 10980 10979 10979 10978 10977 10977 10977 10977 10977 10977 10977 10977 10976 10976 10975 10974 10973 10972 10971 10970 10970 10970 10970 10970 10968 10966 10965 10964 10963 10962 10961 10960 10959 10958 10956 10954 10952 10950 10949 10948 10946 10945 10944 10944 10943 10943 10942 10942 10942 10942 10943 10943 10944 10944 10945 10945 10945 10945 10944 10944 10944 10944 10943 10943 10942 10941 10941 10941 10940 10940 10940 10940 10940 10939 10939 10938 10938 10937 10936 10935 10934
10980 10978 10978 10980 10981 10981 10980 10979 10979 10978 10978 10978 10978 10977 10977 10977 10977 10976 10975 10974 10973 10972 10971 10970 10970 10969 10969 10969 10968 10966 10965 10964 10963 10962 10961 10960 10958 10957 10955 10953 10952 10950 10948 10947 10945 10944 10943 10942 10942 10941 10941 10941 10942 10942 10943 10944 10944 10944 10945 10945 10945 10945 10944 10943 10944 10943 10943 10943 10942 10941 10941 10940 10940 10940 10940 10940 10940 10940 10939 10938 10937 10936 10935 10934 10933
10980 10978 10978 10980 10981 10981 10981 10981 10980 10979 10979 10978 10978 10978 10978 10978 10977 10976 10975 10974 10973 10972 10971 10970 10970 10969 10968 10968 10967 10966 10966 10965 10964 10962 10961 10959 10957 10956 10954 10953 10951 10949 10948 10946 10944 10943 10942 10941 10941 10941 10941 10941 10942 10942 10943 10944 10944 10944 10944 10945 10944 10944 10944 10943 10943 10943 10943 10942 10942 10941 10941 10941 10941 10941 10941 10941 10941 10940 10939 10938 10937 10936 10935 10934 10933
10982 10980 10980 10981 10982 10982 10982 10982 10981 10980 10979 10979 10979 10979 10979 10978 10977 10976 10975 10975 10973 10972 10971 10970 10970 10969 10968 10967 10967 10966 10965 10964 10963 10962 10960 10959 10957 10955 10954 10952 10951 10949 10947 10945 10944 10942 10941 10941 10941 10941 10942 10942 10943 10943 10944 10944 10944 10944 10944 10945 10944 10944 10944 10944 10944 10943 10943 10943 10942 10942 10942 10942 10942 10942 10942 10942 10941 10940 10939 10938 10937 10936 10935 10934 10933
10984 10982 10982 10983 10984 10984 10983 10982 10982 10981 10980 10979 10979 10979 10979 10978 10977 10976 10976 10974 10973 10972 10971 10970 10970 10969 10968 10967 10966 10966 10965 10964 10963 10961 10960 10958 10957 10955 10954 10952 10951 10949 10947 10945 10943 10942 10942 10942 10942 10942 10943 10944 10944 10944 10944 10945 10945 10945 10945 10945 10945 10944 10944 10944 10944 10944 10944 10944 10944 10944 10943 10943 10943 10943 10943 10942 10941 10940 10939 10938 10937 10936 10935 10934 10932
10985 10983 10983 10985 10986 10985 10984 10983 10983 10982 10981 10980 10979 10979 10979 10978 10977 10977 10976 10975 10973 10972 10971 10971 10970 10969 10968 10967 10966 10965 10965 10964 10962 10961 10960 10958 10957 10956 10954 10953 10951 10948 10947 10945 10944 10943 10943 10943 10943 10944 10944 10945 10944 10944 10945 10946 10946 10946 10946 10945 10945 10945 10945 10945 10945 10945 10946 10946 10945 10945 10945 10945 10944 10944 10943 10943 10942 10940 10939 10938 10937 10936 10935 10934 10932
10988 10985 10983 10985 10987 10987 10986 10985 10984 10983 10982 10981 10980 10979 10979 10978 10978 10977 10976 10975 10974 10973 10972 10971 10971 10970 10969 10968 10967 10966 10965 10964 10963 10962 10960 10959 10957 10956 10954 10953 10951 10948 10947 10945 10944 10944 10944 10945 10945 10945 10945 10945 10946 10946 10946 10947 10947 10947 10947 10947 10947 10946 10947 10947 10947 10947 10948 10947 10947 10947 10946 10946 10945 10945 10944 10943 10942 10941 10939 10938 10937 10936 10935 10934 10932
10990 10988 10985 10985 10987 10988 10988 10987 10986 10984 10983 10982 10981 10980 10980 10979 10978 10978 10977 10976 10975 10974 10973 10972 10972 10971 10970 10969 10968 10967 10966 10965 10964 10962 10961 10959 10958 10956 10955 10953 10951 10949 10948 10947 10946 10946 10946 10946 10946 10946 10947 10947 10948 10948 10948 10948 10948 10948 10948 10948 10948 10948 10949 10949 10949 10949 10949 10949 10948 10948 10948 10947 10947 10946 10945 10944 10942 10941 10940 10939 10937 10936 10935 10934 10933
10993 10991 10989 10988 10987 10988 10989 10989 10988 10986 10985 10984 10983 10981 10981 10981 10980 10979 10979 10978 10977 10976 10975 10974 10973 10972 10972 10971 10969 10968 10967 10966 10965 10963 10962 10960 10959 10957 10956 10954 10952 10951 10950 10949 10948 10949 10948 10948 10948 10948 10949 10949 10949 10948 10949 10949 10949 10949 10950 10950 10950 10951 10951 10951 10950 10950 10950 10950 10950 10949 10949 10948 10948 10947 10946 10945 10943 10942 10941 10939 10938 10937 10936 10934 10933
10995 10994 10992 10991 10989 10989 10990 10990 10990 10988 10987 10986 10984 10983 10982 10982 10981 10981 10980 10980 10979 10978 10977 10975 10975 10974 10973 10972 10971 10970 10969 10968 10966 10965 10963 10962 10961 10959 10958 10956 10955 10953 10952 10951 10951 10951 10951 10950 10950 10950 10950 10950 10949 10949 10950 10950 10951 10951 10952 10952 10952 10952 10952 10952 10951 10951 10951 10951 10951 10951 10950 10950 10949 10948 10947 10946 10944 10943 10942 10940 10939 10938 10937 10935 10934
10997 10996 10995 10994 10993 10992 10992 10992 10991 10990 10989 10987 10986 10985 10984 10983 10983 10982 10982 10982 10981 10980 10979 10977 10976 10976 10975 10974 10973 10972 10971 10969 10968 10966 10965 10964 10963 10961 10960 10958 10956 10954 10954 10953 10953 10953 10953 10952 10952 10952 10952 10951 10951 10951 10952 10952 10953 10953 10954 10954 10954 10953 10953 10953 10953 10953 10953 10953 10952 10952 10952 10951 10950 10949 10948 10947 10946 10944 10943 10942 10940 10939 10938 10936 10934
10999 10998 10998 10997 10996 10996 10995 10995 10994 10992 10991 10990 10988 10987 10986 10986 10985 10984 10984 10983 10983 10982 10981 10980 10978 10978 10977 10976 10975 10974 10972 10970 10969 10968 10966 10965 10964 10963 10961 10959 10958 10956 10956 10955 10955 10955 10955 10955 10954 10953 10953 10953 10954 10954 10954 10955 10955 10956 10955 10955 10955 10954 10954 10954 10954 10955 10955 10954 10954 10953 10953 10952 10951 10950 10949 10948 10947 10946 10944 10943 10942 10940 10939 10937 10936
11002 11000 11000 10999 10999 10998 10998 10997 10996 10995 10994 10992 10991 10990 10989 10988 10987 10987 10986 10985 10984 10983 10982 10981 10980 10979 10979 10978 10977 10976 10974 10972 10971 10970 10969 10967 10966 10965 10964 10962 10961 10960 10958 10957 10957 10957 10957 10957 10956 10956 10955 10956 10956 10957 10957 10957 10957 10957 10957 10956 10956 10956 10956 10956 10956 10956 10956 10956 10955 10955 10954 10953 10952 10951 10949 10949 10948 10947 10946 10945 10944 10942 10941 10939 10937
11005 11003 11002 11001 11001 11000 10999 10999 10998 10997 10996 10995 10993 10992 10991 10990 10990 10989 10988 10987 10986 10985 10984 10983 10982 10981 10980 10979 10978 10977 10976 10975 10973 10972 10971 10970 10969 10968 10967 10966 10964 10963 10961 10959 10958 10959 10959 10959 10958 10958 10958 10958 10959 10959 10959 10959 10959 10959 10958 10958 10957 10957 10957 10958 10958 10957 10957 10957 10956 10956 10954 10953 10952 10952 10950 10949 10948 10948 10947 10947 10946 10944 10942 10941 10938
11008 11006 11005 11003 11002 11002 11001 11001 11000 11000 10999 10998 10996 10995 10994 10992 10992 10991 10990 10989 10988 10987 10985 10984 10984 10983 10982 10981 10980 10978 10977 10976 10975 10974 10973 10972 10971 10969 10969 10967 10966 10965 10963 10962 10961 10961 10961 10961 10960 10960 10960 10960 10961 10961 10961 10961 10961 10960 10960 10959 10959 10959 10959 10959 10959 10959 10959 10958 10957 10956 10955 10954 10954 10953 10952 10950 10949 10949 10948 10948 10947 10945 10944 10942 10940
11011 11009 11007 11006 11005 11004 11003 11002 11002 11002 11001 11000 10999 10998 10997 10995 10994 10993 10993 10992 10991 10989 10988 10987 10985 10984 10983 10982 10981 10980 10979 10978 10976 10975 10974 10973 10972 10971 10969 10968 10967 10966 10965 10964 10964 10964 10963 10963 10963 10962 10962 10963 10963 10963 10963 10963 10962 10962 10961 10961 10960 10960 10960 10960 10960 10960 10960 10959 10958 10957 10956 10955 10955 10954 10953 10952 10950 10949 10948 10948 10947 10945 10944 10942 10941
11014 11012 11011 11009 11007 11006 11005 11005 11004 11004 11003 11002 11002 11001 10999 10998 10997 10996 10995 10994 10993 10992 10991 10989 10988 10987 10985 10984 10983 10981 10980 10979 10978 10977 10975 10974 10973 10972 10971 10970 10969 10968 10967 10966 10966 10966 10965 10964 10964 10964 10964 10965 10965 10965 10965 10965 10964 10964 10963 10963 10962 10962 10962 10962 10962 10961 10961 10960 10959 10958 10958 10957 10956 10955 10955 10953 10951 10950 10948 10946 10945 10944 10943 10942 10940
11017 11015 11014 11012 11011 11009 11008 11007 11006 11006 11005 11004 11004 11003 11002 11001 11000 10999 10998 10997 10996 10995 10994 10993 10991 10990 10988 10987 10985 10984 10983 10981 10980 10979 10977 10976 10975 10974 10974 10973 10972 10971 10970 10969 10968 10968 10967 10966 10966 10966 10967 10967 10968 10967 10967 10967 10966 10965 10965 10964 10964 10964 10963 10963 10963 10962 10962 10962 10961 10960 10959 10959 10958 10957 10956 10954 10952 10950 10948 10946 10944 10943 10941 10940 10939
11019 11018 11017 11015 11014 11012 11011 11010 11008 11008 11007 11006 11005 11005 11004 11003 11002 11001 11000 10999 10998 10997 10996 10995 10994 10992 10991 10990 10988 10986 10985 10983 10982 10981 10979 10978 10977 10977 10976 10975 10975 10974 10972 10971 10971 10970 10970 10969 10969 10969 10969 10970 10970 10970 10969 10969 10968 10967 10967 10966 10966 10966 10965 10965 10964 10964 10964 10964 10963 10962 10961 10960 10959 10958 10957 10956 10954 10952 10950 10948 10946 10944 10942 10941 10939
11021 11020 11019 11018 11017 11016 11014 11012 11011 11010 11009 11008 11007 11006 11005 11005 11004 11003 11002 11001 11001 10999 10998 10997 10996 10994 10993 10992 10990 10989 10987 10986 10984 10983 10982 10980 10980 10979 10978 10978 10977 10976 10975 10974 10974 10973 10973 10972 10972 10972 10972 10972 10972 10972 10971 10970 10970 10970 10969 10969 10968 10968 10968 10967 10967 10966 10966 10966 10965 10964 10963 10962 10960 10959 10958 10957 10955 10953 10952 10950 10948 10947 10945 10943 10941
11023 11022 11022 11021 11020 11018 11017 11015 11014 11012 11011 11010 11009 11008 11007 11006 11006 11005 11004 11003 11003 11002 11000 10999 10997 10996 10995 10994 10992 10991 10989 10988 10987 10985 10984 10983 10982 10981 10980 10980 10979 10978 10977 10976 10976 10976 10976 10975 10975 10975 10975 10974 10974 10974 10973 10972 10972 10973 10972 10971 10971 10971 10971 10970 10969 10969 10968 10968 10967 10965 10964 10964 10962 10960 10959 10958 10957 10955 10954 10952 10950 10949 10948 10945 10942
11025 11024 11024 11023 11022 11021 11019 11018 11016 11015 11013 11012 11011 11010 11010 11009 11008 11007 11006 11005 11004 11004 11002 11001 10999 10997 10996 10996 10994 10993 10991 10990 10988 10987 10986 10985 10983 10983 10982 10981 10980 10979 10979 10978 10979 10979 10978 10978 10978 10978 10977 10977 10976 10975 10975 10975 10975 10975 10974 10973 10973 10973 10973 10972 10972 10972 10971 10970 10969 10967 10966 10966 10964 10962 10961 10960 10958 10957 10955 10953 10951 10950 10949 10947 10944
11026 11026 11025 11025 11024 11023 11022 11021 11019 11017 11016 11015 11014 11013 11012 11011 11010 11009 11008 11007 11006 11006 11004 11003 11001 10999 10999 10998 10996 10995 10993 10992 10990 10989 10988 10987 10985 10984 10984 10983 10982 10981 10980 10980 10981 10980 10980 10979 10980 10980 10979 10979 10978 10977 10977 10977 10977 10977 10976 10975 10975 10975 10975 10974 10974 10974 10973 10972 10971 10969 10968 10967 10966 10964 10963 10962 10960 10958 10957 10955 10954 10951 10949 10948 10945
11027 11027 11027 11027 11026 11025 11024 11023 11021 11020 11019 11018 11016 11015 11014 11013 11013 11012 11011 11010 11009 11008 11006 11005 11003 11001 11001 11000 10998 10997 10995 10994 10992 10991 10990 10989 10988 10987 10986 10985 10984 10983 10982 10982 10983 10983 10982 10981 10981 10981 10981 10981 10980 10980 10979 10979 10979 10979 10978 10977 10977 10977 10976 10976 10976 10976 10975 10974 10972 10972 10971 10970 10968 10966 10965 10963 10962 10960 10959 10958 10956 10953 10950 10948 10946
11029 11029 11028 11028 11028 11027 11026 11025 11023 11022 11021 11020 11019 11018 11017 11016 11015 11014 11013 11012 11011 11010 11008 11007 11005 11004 11003 11002 11000 10999 10997 10996 10995 10994 10993 10991 10990 10989 10988 10987 10986 10985 10985 10985 10984 10984 10984 10983 10983 10983 10983 10982 10982 10982 10981 10981 10981 10980 10980 10980 10979 10978 10978 10978 10977 10977 10977 10976 10974 10974 10973 10972 10970 10968 10966 10965 10964 10962 10961 10960 10958 10955 10952 10949 10947
11030 11030 11030 11029 11029 11028 11028 11027 11025 11024 11023 11022 11021 11020 11019 11018 11017 11017 11016 11015 11013 11012 11010 11009 11008 11007 11006 11004 11003 11002 11000 10998 10997 10996 10995 10994 10993 10991 10990 10989 10989 10988 10987 10987 10986 10986 10985 10985 10985 10985 10984 10984 10984 10984 10983 10983 10982 10982 10982 10982 10981 10980 10980 10979 10979 10978 10978 10977 10976 10975 10974 10973 10972 10970 10968 10967 10966 10964 10963 10961 10959 10957 10954 10951 10949
11032 11031 11031 11031 11030 11030 11029 11029 11028 11026 11025 11024 11023 11022 11021 11020 11019 11019 11018 11017 11016 11014 11013 11012 11011 11009 11008 11007 11005 11004 11002 11001 11000 10999 10997 10996 10995 10994 10993 10992 10992 10991 10990 10989 10989 10988 10988 10987 10987 10987 10986 10986 10985 10985 10985 10984 10983 10983 10983 10983 10983 10982 10982 10981 10980 10979 10979 10978 10977 10976 10975 10975 10974 10972 10971 10970 10968 10966 10965 10963 10961 10958 10956 10954 10952
11033 11033 11032 11032 11032 11031 11031 11030 11030 11028 11027 11026 11025 11024 11023 11023 11022 11021 11020 11019 11017 11016 11015 11014 11013 11012 11010 11009 11007 11006 11005 11004 11003 11001 11000 10999 10998 10997 10996 10995 10995 10994 10993 10992 10991 10991 10990 10990 10989 10989 10988 10988 10987 10986 10986 10986 10985 10984 10984 10984 10984 10983 10983 10982 10982 10980 10979 10979 10979 10978 10977 10976 10975 10974 10972 10971 10970 10968 10967 10966 10963 10960 10958 10956 10954
11034 11034 11034 11034 11033 11033 11032 11032 11031 11031 11030 11029 11028 11027 11026 11025 11024 11023 11022 11021 11020 11019 11018 11017 11015 11014 11013 11011 11010 11008 11007 11006 11005 11004 11003 11003 11001 11000 10999 10998 10998 10996 10996 10995 10994 10994 10993 10992 10991 10991 10990 10990 10989 10988 10987 10987 10987 10986 10985 10985 10985 10985 10985 10984 10983 10982 10981 10981 10980 10980 10979 10977 10976 10975 10974 10973 10973 10971 10970 10969 10966 10963 10961 10958 10956
11035 11035 11035 11035 11035 11034 11034 11033 11033 11032 11032 11031 11030 11029 11028 11026 11025 11025 11023 11023 11022 11021 11020 11019 11018 11016 11015 11014 11013 11011 11010 11010 11009 11008 11007 11006 11005 11004 11003 11002 11001 11000 10999 10998 10997 10996 10996 10994 10993 10993 10992 10992 10991 10990 10989 10988 10988 10988 10987 10986 10986 10986 10986 10986 10985 10984 10984 10983 10982 10981 10980 10979 10979 10978 10977 10976 10975 10974 10973 10971 10968 10965 10963 10961 10959
11036 11036 11036 11036 11036 11036 11035 11035 11034 11034 11033 11033 11032 11031 11030 11028 11027 11026 11026 11025 11024 11023 11022 11021 11020 11019 11018 11017 11016 11014 11014 11013 11012 11011 11010 11009 11008 11007 11006 11005 11004 11003 11002 11001 11000 10999 10998 10997 10996 10995 10994 10994 10993 10992 10992 10991 10990 10990 10989 10988 10988 10987 10987 10987 10987 10986 10986 10985 10984 10983 10983 10982 10981 10980 10979 10978 10977 10976 10975 10974 10971 10968 10965 10964 10962
11037 11037 11037 11037 11037 11037 11036 11036 11035 11035 11035 11035 11034 11033 11032 11031 11030 11028 11028 11027 11026 11025 11024 11023 11022 11021 11020 11019 11019 11018 11017 11016 11015 11014 11013 11013 11012 11011 11010 11009 11008 11007 11006 11005 11003 11002 11001 11000 10999 10998 10997 10996 10995 10994 10994 10993 10992 10992 10991 10990 10990 10989 10988 10988 10987 10987 10987 10987 10986 10986 10985 10984 10984 10982 10981 10981 10980 10978 10977 10976 10974 10972 10970 10968 10966
11037 11038 11038 11038 11038 11038 11038 11037 11037 11037 11036 11036 11036 11035 11034 11033 11032 11031 11030 11029 11029 11028 11027 11026 11025 11024 11023 11022 11021 11021 11020 11019 11018 11018 11017 11016 11015 11014 11013 11012 11011 11010 11009 11008 11007 11005 11004 11003 11002 11001 11000 10999 10998 10997 10996 10995 10994 10994 10993 10992 10992 10991 10991 10989 10987 10986 10988 10988 10988 10988 10987 10987 10986 10985 10984 10983 10982 10981 10979 10978 10977 10976 10975 10972 10970